SCP
0 0 0 0 0 0 0 0 0 0 0 0 0 0 0 0 0 0 0 0 0 0 0 0 0 0 0 0 0 0 0 0 0 0 -0 -0 -0 0 0 0 0 0 -0
0 0 0 0 0 0 0 0 0 0 0 0 0 0 0 0 0 0 0 0 0 0 0 0 0 0 0 0 0 0 0 0 0 0 0 -0 -0 0 0 0 0 0 -0
0 0 0 0 0 0 0 0 0 0 0 0 0 0 0 0 0 0 0 0 0 0 0 0 0 0 0 0 0 0 0 0 0 0 0 -0 -0 -0 0 0 0 0 0
0 0 0 0 0 0 0 0 0 0 0 0 0 0 0 0 0 0 0 0 0 0 0 0 0 0 0 0 0 0 0 0 0 0 0 0 -0 0 0 0 0 0 0
0 0 0 0 0 0 0 0 0 0 0 0 0 0 0 0 0 0 0 0 0 0 0 0 0 0 0 0 0 0 0 0 0 0 0 0 0 0 0 0 0 0 0
0 0 0 0 0 0 0 0 0 0 0 0 0 0 0 0 0 0 0 0 0 0 0 0 0 0 0 0 0 0 0 0 0 0 0 0 0 0 0 0 0 0 0
0 0 0 0 0 0 0 0 0 0 0 0 0 0 0 0 0 0 0 0 0 0 0 0 0 0 0 0 0 0 0 0 0 0 0 0 0 0 0 0 0 0 0
0 0 0 0 0 0 0 0 0 0 0 0 0 0 0 0 0 0 0 0 0 0 0 0 0 0 0 0 0 0 0 0 0 0 0 0 0 0 0 0 0 0 0
0 0 0 0 0 0 0 0 0 0 0 0 0 0 0 0 0 0 0 0 0 0 0 0 0 0 0 0 0 0 0 0 0 0 0 0 0 0 0 0 0 0 0
0 0 0 0 0 0 0 0 0 0 0 0 0 0 0 0 0 0 0 0 0 0 0 0 0 0 0 0 0 0 0 0 0 0 0 0 0 0 0 0 0 0 0
0 0 0 0 0 0 0 0 0 0 0 0 0 0 0 0 0 0 0 0 0 0 0 0 0 0 0 0 0 0 0 0 0 0 0 0 0 0 0 0 0 0 0
0 0 0 0 0 0 0 0 0 0 0 0 0 0 0 0 0 0 0 0 0 0 0 0 0 0 0 0 0 0 0 0 0 0 0 0 0 0 0 0 0 0 0
0 0 0 0 0 0 0 0 0 0 0 0 0 0 0 0 0 0 0 0 0 0 0 0 0 0 0 0 0 0 0 0 0 0 0 0 0 0 0 0 0 0 0
0 0 0 0 0 0 0 0 0 0 0 0 0 0 0 0 0 0 0 0 0 0 0 0 0 0 0 0 0 0 0 0 0 0 0 0 0 0 0 0 0 0 0
0 0 0 0 0 0 0 0 0 0 0 0 0 0 0 0 0 0 0 0 0 0 0 0 0 0 0 0 0 0 0 0 0 0 0 0 0 0 0 0 0 0 0
0 0 0 0 0 0 0 0 0 0 0 0 0 0 0 0 0 0 0 0 0 0 0 0 0 0 0 0 0 0 0 0 0 0 0 0 0 0 0 0 0 0 0
0 0 0 0 0 0 0 0 0 0 0 0 0 0 0 0 0 0 0 0 0 0 0 0 0 0 0 0 0 0 0 0 0 0 0 0 0 0 0 0 0 0 0
0 0 0 0 0 0 0 0 0 0 0 0 0 0 0 0 0 0 0 0 0 0 0 0 0 0 0 0 0 0 0 0 0 0 0 0 0 0 0 0 0 0 0
0 0 0 0 0 0 0 0 0 0 0 0 0 0 0 0 0 0 0 0 0 0 0 0 0 0 0 0 0 0 0 0 0 0 0 0 0 0 0 0 0 0 0
0 0 0 0 0 0 0 0 0 0 0 0 0 0 0 0 0 0 0 0 0 0 0 0 0 0 0 0 0 0 0 0 0 0 0 0 0 0 0 0 0 0 0
0 0 0 0 0 0 0 0 0 0 0 0 0 0 0 0 0 0 0 0 0 0 0 0 0 0 0 0 0 0 0 0 0 0 0 0 0 0 0 0 0 0 0
0 0 0 0 0 0 0 0 0 0 0 0 0 0 0 0 0 0 0 0 0 0 0 0 0 0 0 0 0 0 0 0 0 0 0 0 0 0 0 0 0 0 0
0 0 0 0 0 0 0 0 0 0 0 0 0 0 0 0 0 0 0 0 0 0 0 0 0 0 0 0 0 0 0 0 0 0 -0 0 0 0 0 0 0 0 0
0 0 0 0 0 0 0 0 0 0 0 0 0 0 0 0 0 0 0 0 0 0 0 0 0 0 0 0 0 0 0 0 0 0 0 0 0 0 0 0 0 0 0
0 0 0 0 0 0 0 0 0 0 0 0 0 0 0 0 0 0 0 0 0 0 0 0 0 0 0 0 0 0 0 0 0 0 0 0 0 0 0 0 0 0 0
0 0 0 0 0 0 0 0 0 0 0 0 0 0 0 0 0 0 0 0 0 0 0 0 0 0 0 0 0 0 0 0 0 0 0 0 0 0 0 0 0 0 0
Wind_Speed
13 12 10 9 9 8 7 7 7 6 6 7 7 7 7 8 7 7 8 9 10 11 11 11 13 11 9 9 8 8 8 10 13 13 10 9 9 10 11 9 9 8 9
13 12 11 9 8 8 8 8 7 7 6 7 7 7 8 8 8 8 10 11 11 13 14 13 14 12 12 9 8 9 9 10 12 16 12 9 9 9 10 10 10 10 8
12 12 11 10 9 9 8 7 7 7 6 6 6 7 8 8 9 9 10 11 13 14 14 14 14 13 12 10 10 10 10 11 10 12 12 9 7 7 8 10 10 8 11
13 13 13 12 11 9 8 7 7 7 6 7 7 8 8 8 9 10 11 12 13 14 13 13 12 12 12 12 11 11 11 11 11 10 10 9 8 6 6 7 10 7 9
14 14 14 11 9 8 8 8 7 7 7 6 7 8 9 8 8 10 11 12 11 10 9 9 10 13 17 14 11 9 9 9 8 8 10 10 8 5 6 6 10 9 9
15 14 12 10 10 9 9 8 7 7 6 6 7 8 9 9 16 21 17 8 7 7 7 8 9 12 16 20 23 21 17 11 9 9 9 10 9 7 7 8 9 9 7
15 13 12 11 11 11 10 9 8 7 6 7 7 8 9 12 20 20 21 9 5 6 7 7 8 10 15 9 16 20 16 20 19 12 10 10 10 9 10 11 10 10 10
14 13 13 12 12 10 10 10 9 6 6 6 7 8 9 11 18 19 20 7 6 7 7 8 9 9 12 15 11 8 9 10 13 9 9 11 11 11 11 12 11 11 10
16 15 15 14 13 12 12 11 9 7 7 7 7 8 8 10 15 17 17 5 6 7 7 8 9 9 19 23 10 7 9 8 12 16 18 17 19 18 14 8 6 7 8
18 16 15 14 14 14 13 11 8 7 7 7 7 6 7 7 13 16 15 4 6 6 6 7 13 16 20 19 7 6 9 9 7 9 11 14 11 12 16 7 4 6 6
13 13 14 14 14 13 11 9 8 7 6 6 6 6 6 7 10 14 15 5 5 5 6 5 8 19 20 19 15 8 13 11 6 8 8 8 7 6 6 6 6 6 7
13 14 14 14 12 11 11 10 8 8 6 6 5 6 5 6 8 11 14 13 11 5 6 6 9 18 18 18 14 16 19 15 7 8 8 8 7 7 6 7 8 9 10
15 15 14 14 13 11 12 11 8 7 6 5 5 5 4 4 6 12 13 14 14 7 5 12 15 17 15 12 16 19 14 8 8 8 9 8 7 7 7 7 7 8 10
16 15 14 14 13 12 10 9 8 8 7 6 6 5 4 4 4 5 6 6 9 8 6 8 13 13 12 13 13 10 7 7 8 7 8 8 8 7 6 6 6 5 5
15 14 13 13 12 11 11 9 10 8 8 7 6 5 4 4 6 10 6 4 4 4 4 3 4 6 7 7 8 7 7 7 8 7 8 9 9 8 7 6 5 5 4
13 13 11 10 10 10 9 8 14 12 15 16 13 10 7 9 10 10 10 9 9 8 4 3 5 6 7 9 9 9 8 8 7 8 8 8 9 8 8 7 6 5 5
14 13 11 11 11 11 10 10 8 10 14 15 15 14 12 10 10 9 7 6 6 5 2 3 4 6 7 8 8 8 8 8 7 7 8 8 8 8 8 8 7 7 6
13 16 14 11 11 11 11 10 9 9 8 6 8 12 11 10 8 6 4 2 2 2 2 3 4 5 6 7 8 8 8 7 6 7 7 7 8 8 8 8 7 8 7
13 10 11 10 10 10 10 9 8 9 8 5 4 5 9 7 6 5 2 1 2 2 3 4 4 5 6 7 7 8 7 7 7 6 7 8 8 8 8 8 8 12 8
11 18 15 10 10 10 10 10 9 9 8 7 7 6 4 4 3 3 3 3 3 3 3 4 4 5 6 6 7 7 7 6 6 6 6 7 7 7 8 10 9 9 7
9 13 22 13 10 11 11 11 10 9 9 8 7 8 12 6 5 5 4 3 3 3 3 4 4 5 5 6 6 7 8 6 5 5 6 6 7 7 7 8 8 8 8
9 9 10 10 10 10 10 10 10 10 10 9 6 8 15 7 5 4 4 4 3 3 3 3 4 4 5 5 6 7 6 6 6 5 6 6 6 7 7 8 8 8 9
10 10 10 10 9 14 13 9 10 10 9 9 8 7 7 6 6 5 5 4 3 3 3 3 4 4 5 5 5 5 5 5 5 4 5 6 6 7 7 8 9 10 10
10 12 12 11 11 10 10 10 10 10 9 9 8 8 7 6 6 5 5 4 3 3 3 3 4 5 8 6 5 5 4 3 3 3 4 5 6 7 7 8 9 11 9
10 11 11 11 11 11 11 11 10 10 10 10 9 8 7 7 6 5 4 4 4 3 3 3 3 4 7 8 8 7 6 4 4 3 3 4 6 7 7 8 8 9 9
11 12 11 10 11 11 11 11 11 11 10 10 9 8 8 7 7 6 5 4 3 3 3 3 4 6 7 6 8 10 8 4 4 5 3 3 5 6 7 7 9 9 9
Wind_Direction
191 191 190 189 193 194 202 212 220 228 233 238 245 250 255 258 258 258 264 267 266 271 271 269 270 269 266 264 260 259 260 263 275 285 284 284 284 290 297 296 294 291 293
190 189 192 187 187 196 207 216 219 226 232 238 246 253 258 262 259 260 269 276 271 272 273 272 272 273 268 265 263 264 266 266 269 280 286 285 280 283 287 290 298 300 296
186 188 191 192 193 202 209 214 216 221 233 242 248 255 260 262 264 264 264 270 271 271 273 274 274 273 270 266 265 267 269 271 268 275 284 286 281 279 285 290 290 287 289
187 190 195 199 199 202 204 208 214 219 232 245 251 257 261 263 264 269 269 268 270 271 272 272 271 268 266 265 267 265 268 273 276 279 284 286 282 274 275 292 297 290 289
190 195 200 196 192 193 199 207 214 222 237 245 256 264 268 269 265 264 262 263 270 275 274 269 270 277 278 279 276 268 272 279 284 286 287 288 287 287 285 287 292 296 291
193 198 194 185 188 195 202 207 215 226 238 248 256 264 272 275 287 294 296 279 278 280 277 275 278 283 288 295 300 300 297 296 291 285 286 284 283 277 281 282 284 290 293
196 194 188 186 192 198 204 209 218 226 236 249 257 263 268 277 292 297 302 303 277 274 275 279 289 290 301 288 290 294 295 297 298 295 289 284 283 280 276 276 270 267 267
195 192 188 187 193 195 202 214 220 221 232 246 257 263 269 279 295 302 304 307 274 272 273 275 278 280 285 288 279 268 264 274 285 286 272 272 274 271 263 265 267 269 269
198 195 191 188 189 194 206 215 216 217 231 242 252 259 266 280 297 301 307 290 281 280 279 279 287 280 291 303 305 285 283 283 295 299 301 300 299 300 295 286 280 277 282
201 196 189 187 190 198 207 212 210 213 228 242 253 254 262 272 292 302 308 292 290 286 283 285 304 309 311 323 321 297 295 295 293 299 303 303 298 293 295 284 263 266 273
194 187 186 189 193 197 202 206 206 213 225 236 252 259 262 273 293 303 305 303 294 294 299 301 304 316 326 333 334 316 311 326 319 304 300 294 287 277 271 259 237 235 242
182 185 187 188 190 192 195 201 204 208 220 236 249 260 253 266 287 296 306 316 320 300 300 300 304 324 336 337 331 325 335 338 318 309 308 305 301 294 283 270 253 238 235
184 189 187 187 190 189 191 196 199 203 213 229 237 253 257 254 277 298 309 316 321 318 303 318 328 335 337 331 326 335 339 325 313 316 313 309 302 292 288 283 271 254 245
188 190 187 186 189 191 191 194 196 199 206 217 228 241 250 259 270 278 277 289 308 315 317 323 333 336 336 330 331 328 320 315 322 317 312 310 307 305 302 297 294 289 270
191 190 188 189 187 190 195 198 199 201 197 202 214 221 229 247 262 283 298 290 295 306 329 321 325 332 335 330 325 322 320 322 326 321 319 321 320 319 317 314 302 297 275
192 191 188 186 185 187 189 199 218 212 221 226 222 215 228 245 272 292 308 317 323 339 352 324 330 332 330 327 325 325 325 327 328 327 325 326 324 322 321 320 317 305 293
194 188 186 185 185 186 185 186 194 214 223 227 230 233 235 247 267 287 301 322 324 347 341 313 317 321 321 321 321 322 323 324 324 325 326 327 327 325 325 326 326 322 313
195 192 187 186 186 185 185 185 185 185 194 214 227 230 233 240 256 272 293 335 317 326 295 302 310 314 317 319 321 322 321 323 327 328 327 328 329 328 328 329 327 324 319
194 192 187 182 183 184 181 178 181 184 188 186 180 216 221 223 235 244 230 208 252 279 292 300 303 308 313 317 319 319 319 321 326 328 328 330 331 331 330 329 327 328 329
196 198 188 182 181 180 179 178 180 183 186 188 193 192 183 183 198 217 218 224 239 260 279 292 299 304 310 313 316 319 321 322 328 329 327 329 330 331 332 331 331 329 325
190 198 195 188 186 185 182 181 180 180 186 191 194 191 185 185 198 205 213 222 230 247 267 284 294 304 309 313 315 320 323 325 327 327 327 329 332 334 331 330 331 330 327
186 190 189 183 186 188 186 182 179 181 185 186 182 195 200 186 188 198 209 220 225 237 253 272 287 294 301 310 317 322 325 326 328 329 329 331 332 335 336 338 341 340 339
185 187 188 184 185 193 190 181 179 181 182 183 180 183 188 180 187 196 205 210 214 233 252 270 286 296 304 308 314 316 319 321 321 326 333 336 338 340 342 343 344 348 347
187 188 189 186 187 191 187 183 181 181 180 179 181 183 183 180 183 191 193 197 208 228 249 268 282 297 310 317 319 315 307 313 328 342 346 342 342 341 343 347 349 350 351
190 190 191 189 189 191 189 184 182 180 180 181 182 182 179 177 180 185 185 189 202 225 252 273 284 299 310 315 319 323 336 7 17 20 4 354 347 344 345 350 353 354 357
194 193 192 189 189 191 189 185 182 181 180 181 180 176 174 173 174 176 177 183 197 221 249 273 290 301 309 312 318 334 356 27 26 35 37 5 356 354 355 355 355 2 5